Content
SEND FEEDBACK

Daily
Averages
Monthly
Summary
United States of America

LAKE BRONSON, MINNESOTA


Home > North America > United States > Minnesota
Elevation: 310 meters     Latitude: 48 58N     Longitude: 096 26W

WEATHER
 
SELECT A DAY
Number of Records: 445,889;   Date Range: 1/1/95 - 7/23/14
 
SHARE

PRINT THIS DATA

[ ← Previous Day ]
WEATHER ALMANAC - 31 JANUARY, 2013
[ Next Day → ]
[ °F ]   °C
Weather ElementAverageHighLow
Temperature-24.3 °C-21 °C (12:34 am)-29 °C (9:34 pm)
Dewpoint-27.9 °C-23 °C (12:34 am)-33 °C (9:34 pm)
Humidity73.2 %84 % (12:34 am)64 % (3:54 pm)
Barometer1021.3 hPa1025.1 hPa (6:14 pm)1013.5 hPa (12:34 am)
Wind Speed25.3 km/h40.7 km/h (2:34 am)
Wind Gust51.8 km/h (2:34 am)
Weather ElementAverage
Visibility6.4 km
Wind DirectionNW (314.5 °)

Weather ElementTotal
Precipitation---
Heating Degree Days43.3 (Base 18.3)
Averaged from 67 records on 31 January, 2013
WEATHER CONDITIONS BREAKOUT
WIND DIRECTION BREAKOUT
WEATHER BY HOUR - 31 JANUARY, 2013
[ °F ]   °C
Local TimeTemperatureDewpointHumidityBarometerVisibilityWind DirectionWind SpeedGust SpeedPrecipitationEventsConditions
12:34 AM-21 °C-23 °C84 %1013.5 hPa1.3 kmNNW (330°)35.2 km/h46.3 km/hSnowLight Snow
12:54 AM-21 °C-23 °C84 %1013.9 hPa1.3 kmNNW (330°)33.3 km/h42.6 km/hSnowLight Snow
1:14 AM-21 °C-24 °C77 %1014.2 hPa1.6 kmNNW (330°)35.2 km/h42.6 km/hHaze
1:34 AM-21 °C-24 °C77 %1014.2 hPa2.4 kmNNW (330°)33.3 km/h40.7 km/hHaze
1:54 AM-21 °C-24 °C77 %1014.6 hPa2.4 kmNNW (330°)31.5 km/hHaze
2:14 AM-21 °C-24 °C77 %1014.9 hPa1.6 kmNNW (340°)35.2 km/h42.6 km/hSnowLight Snow
2:34 AM-22 °C-24 °C84 %1014.9 hPa1.6 kmNNW (340°)40.7 km/h51.8 km/hSnowLight Snow
2:54 AM-22 °C-24 °C84 %1015.2 hPa1.6 kmNNW (340°)35.2 km/h50.1 km/hSnowLight Snow
3:14 AM-22 °C-24 °C84 %1015.2 hPa1.3 kmNNW (340°)37 km/h46.3 km/hSnowLight Snow
3:34 AM-22 °C-24 °C84 %1015.6 hPa1.6 kmNNW (340°)35.2 km/h50.1 km/hSnowLight Snow
3:54 AM-22 °C-25 °C77 %1015.9 hPa2.4 kmNNW (340°)37 km/h44.4 km/hSnowLight Snow
4:14 AM-22 °C-25 °C77 %1016.3 hPa1.9 kmNNW (340°)35.2 km/h40.7 km/hHaze
4:34 AM-22 °C-25 °C77 %1016.6 hPa1.6 kmNNW (340°)37 km/h48.1 km/hSnowLight Snow
4:54 AM-22 °C-25 °C77 %1017.3 hPa2.4 kmNNW (330°)31.5 km/h46.3 km/hSnowLight Snow
5:14 AM-22 °C-25 °C77 %1017.3 hPa1.9 kmNNW (330°)35.2 km/h50.1 km/hSnowLight Snow
5:34 AM-22 °C-25 °C77 %1017.6 hPa2.4 kmNNW (340°)33.3 km/h44.4 km/hHaze
5:54 AM-22 °C-25 °C77 %1017.9 hPa2.9 kmNNW (330°)27.8 km/h40.7 km/hHaze
6:14 AM-22 °C-25 °C77 %1018.3 hPa2.9 kmNNW (330°)35.2 km/h40.7 km/hSnowLight Snow
6:34 AM-23 °C-26 °C77 %1018.6 hPa2.4 kmNNW (330°)33.3 km/h44.4 km/hHaze
6:53 AM-23 °C-26 °C77 %1019 hPa2.4 kmNNW (330°)31.5 km/hHaze
7:14 AM-23 °C-26 °C77 %1019.3 hPa2.4 kmNNW (340°)35.2 km/hHaze
7:34 AM-23 °C-26 °C77 %1019.6 hPa2.4 kmNNW (330°)33.3 km/hHaze
7:53 AM-23 °C-26 °C77 %1020 hPa1.9 kmNNW (340°)33.3 km/h48.1 km/hHaze
8:14 AM-23 °C-27 °C71 %1020.7 hPa1.3 kmNNW (330°)33.3 km/h44.4 km/hHaze
8:31 AM-24 °C-27 °C77 %1021 hPa1.3 kmNNW (330°)29.6 km/h48.1 km/hHaze
8:54 AM-24 °C-27 °C77 %1021.3 hPa1.6 kmNNW (330°)33.3 km/h46.3 km/h
9:18 AM-24 °C-27 °C77 %1021.7 hPa1.3 kmNNW (330°)33.3 km/h40.7 km/hHaze
9:34 AM-24 °C-28 °C70 %1022 hPa1.6 kmNNW (330°)33.3 km/hHaze
9:54 AM-24 °C-28 °C70 %1022 hPa1.9 kmNNW (330°)29.6 km/hHaze
10:14 AM-24 °C-28 °C70 %1022.4 hPa2.4 kmNNW (330°)35.2 km/h44.4 km/hHaze
10:34 AM-24 °C-28 °C70 %1022.7 hPa1.9 kmNNW (330°)31.5 km/h44.4 km/hHaze
11:14 AM-24 °C-28 °C70 %1023 hPa2.4 kmNNW (330°)35.2 km/h46.3 km/hOvercast
11:34 AM-24 °C-28 °C70 %1023.4 hPa2.4 kmNNW (330°)31.5 km/hHaze
11:54 AM-24 °C-28 °C70 %1023.4 hPa2.4 kmNNW (330°)29.6 km/hOvercast
12:14 PM-25 °C-29 °C70 %1023.4 hPa3.2 kmNNW (330°)31.5 km/h38.9 km/hOvercast
12:34 PM-24 °C-28 °C70 %1023.4 hPa2.9 kmNW (320°)27.8 km/h40.7 km/hHaze
12:54 PM-24 °C-28 °C70 %1023.4 hPa2.9 kmNNW (330°)27.8 km/hHaze
1:14 PM-24 °C-28 °C70 %1023.7 hPa1.9 kmNW (320°)29.6 km/h38.9 km/hHaze
1:34 PM-24 °C-28 °C70 %1023.7 hPa2.4 kmNW (320°)25.9 km/h38.9 km/hHaze
1:54 PM-24 °C-28 °C70 %1023.7 hPa2.9 kmNNW (330°)29.6 km/hHaze
2:14 PM-24 °C-28 °C70 %1023.7 hPa2.9 kmNW (320°)27.8 km/h37 km/hHaze
2:34 PM-24 °C-28 °C70 %1023.7 hPa4 kmNNW (330°)27.8 km/hHaze
2:54 PM-24 °C-28 °C70 %1024 hPa1.9 kmNW (320°)27.8 km/h37 km/hHaze
3:14 PM-24 °C-28 °C70 %1024 hPa2.9 kmNW (310°)31.5 km/h37 km/hHaze
3:34 PM-24 °C-28 °C70 %1024.4 hPa4 kmNW (320°)25.9 km/h37 km/hOvercast
3:54 PM-24 °C-29 °C64 %1024.4 hPa8 kmNW (320°)25.9 km/h31.5 km/hMostly Cloudy
4:14 PM-25 °C-29 °C70 %1024.4 hPa6.4 kmNW (320°)25.9 km/hHaze
4:34 PM-25 °C-29 °C70 %1024.7 hPa16.1 kmNW (320°)18.5 km/hMostly Cloudy
4:54 PM-25 °C-29 °C70 %1024.7 hPa16.1 kmNNW (330°)16.7 km/hScattered Clouds
5:14 PM-26 °C-29 °C77 %1024.7 hPa16.1 kmNW (320°)18.5 km/hClear
5:34 PM-26 °C-30 °C70 %1024.7 hPa16.1 kmNW (320°)13 km/h
6:14 PM-26 °C-31 °C64 %1025.1 hPa16.1 kmNW (310°)9.3 km/hClear
6:34 PM-27 °C-31 °C70 %1024.7 hPa16.1 kmNW (310°)7.4 km/hClear
6:54 PM-27 °C-31 °C70 %1024.7 hPa16.1 kmWNW (300°)9.3 km/hClear
7:14 PM-27 °C-31 °C70 %1025.1 hPa16.1 kmWNW (290°)9.3 km/hClear
7:34 PM-27 °C-31 °C70 %1025.1 hPa16.1 kmWNW (290°)9.3 km/hClear
8:14 PM-27 °C-31 °C70 %1025.1 hPa16.1 kmWNW (290°)9.3 km/hClear
8:34 PM-27 °C-32 °C64 %1024.7 hPa16.1 kmWNW (290°)9.3 km/hClear
8:54 PM-28 °C-32 °C70 %1024.7 hPa16.1 kmWNW (290°)7.4 km/hClear
9:14 PM-28 °C-32 °C70 %1024.7 hPa16.1 kmWNW (300°)5.6 km/hClear
9:34 PM-29 °C-33 °C69 %1024.4 hPa16.1 kmCalmClear
10:14 PM-29 °C-32 °C76 %1024.4 hPa16.1 kmWest (280°)5.6 km/hClear
10:34 PM-29 °C-33 °C69 %1024.4 hPa16.1 kmWest (280°)5.6 km/hClear
10:54 PM-29 °C-33 °C69 %1024.4 hPa16.1 kmWest (260°)5.6 km/hClear
11:14 PM-29 °C-33 °C69 %1024 hPa16.1 kmWSW (250°)5.6 km/hClear
11:34 PM-29 °C-33 °C69 %1024 hPa16.1 kmWSW (250°)5.6 km/hClear
11:54 PM-29 °C-33 °C69 %1023.7 hPa16.1 kmWest (270°)7.4 km/hClear
Hourly data recorded from KHCO, located 0 kilometers away from Lake Bronson, Minnesota







STORIES FROM OUR PARTNERS